Regional Weather Roundup
Issued by NWS

Home | Current Version | Previous Version | Graphics & Text | Print | Product List | Glossary On
Versions: 1 2 3 4 5 6 7 8 9 10 11 12 13 14 15 16 17 18 19 20 21 22 23 24 25 26 27 28 29 30 31 32 33 34 35 36 37 38 39 40 41 42 43 44 45 46 47 48 49 50
000
ASUS43 KBIS 302359
RWRND

NORTH DAKOTA REGIONAL WEATHER ROUNDUP
NATIONAL WEATHER SERVICE BISMARCK ND
700 PM CDT WED JUL 30 2014

NOTE: "FAIR" INDICATES FEW OR NO CLOUDS BELOW 12,000 FEET WITH NO
SIGNIFICANT WEATHER AND/OR OBSTRUCTIONS TO VISIBILITY.


NDZ001>003-009>011-017-310100-
NORTHWEST NORTH DAKOTA

CITY           SKY/WX    TMP DP  RH WIND       PRES   REMARKS
WILLISTON      SUNNY     83  45  26 NE9       30.12S
6HR MIN TEMP:  81; 6HR MAX TEMP:  85;

MINOT          MOSUNNY   77  59  53 N8        30.10F
$$

NDZ018>021-031>035-040>046-310100-
SOUTHWEST NORTH DAKOTA

CITY           SKY/WX    TMP DP  RH WIND       PRES   REMARKS
BISMARCK       MOSUNNY   80  56  43 E6        30.10S
6HR MIN TEMP:  79; 6HR MAX TEMP:  84;

GARRISON         N/A     80  57  45 N5        30.11F
6HR MIN TEMP:  74; 6HR MAX TEMP:  80;

HETTINGER ARPT SUNNY     81  51  35 N5        30.15F
$$

NDZ004>008-012>016-024-026-027-054-310100-
NORTHEAST NORTH DAKOTA

CITY           SKY/WX    TMP DP  RH WIND       PRES   REMARKS
GRAND FORKS    MOSUNNY   79  56  45 N7        30.04S
DEVILS LAKE    SUNNY     79  55  44 N7        30.07S
$$

NDZ022-023-025-028>030-036>039-047>053-310100-
SOUTHEAST NORTH DAKOTA

CITY           SKY/WX    TMP DP  RH WIND       PRES   REMARKS
FARGO          SUNNY     80  54  40 NW10      30.04F
6HR MIN TEMP:  78; 6HR MAX TEMP:  83;

JAMESTOWN      SUNNY     78  53  41 N5        30.08F
$$



USA.gov is the U.S. government's official web portal to all federal, state and local government web resources and services.